Wind_Speed
14 15 15 15 15 15 15 14 13 13 13 13 13 14 14 15 16 17 17 18 19 19 18 18 18 17 16 14 13 12 12 13 13 13 14 16 16 16 17 16 15 17 17
15 16 16 16 16 16 15 14 14 13 12 12 13 14 14 15 16 16 17 18 19 19 19 19 19 18 17 16 14 13 13 15 14 14 15 15 16 17 17 15 15 17 17
16 16 16 16 16 16 16 15 14 13 12 12 12 13 13 14 15 16 17 18 19 20 20 21 20 19 18 17 16 15 14 15 16 15 16 16 17 17 18 17 16 17 16
16 17 17 17 17 16 16 15 14 13 12 12 12 12 12 13 15 15 16 17 18 19 20 21 22 21 19 19 18 16 16 15 16 16 16 17 17 18 18 18 17 17 16
17 17 17 17 17 17 16 15 14 13 12 12 11 11 11 11 13 14 15 17 18 18 20 21 22 22 20 20 19 17 17 16 16 16 16 17 18 18 18 18 17 17 16
16 17 17 17 17 17 17 16 14 14 13 12 11 11 11 11 11 13 14 16 16 17 19 21 22 22 21 21 20 19 18 17 17 16 16 17 19 19 18 18 18 18 18
16 17 17 17 18 17 16 16 14 14 13 12 11 10 10 11 11 12 14 15 16 17 18 20 21 22 22 22 21 20 19 17 17 17 17 17 18 19 17 17 18 18 18
16 17 17 17 18 17 17 16 14 14 13 11 10 10 10 10 11 12 13 14 15 16 18 19 20 21 22 23 22 21 20 19 18 18 18 18 18 19 19 17 19 18 18
16 16 17 17 18 18 17 16 15 14 13 11 10 9 8 9 10 11 12 13 14 16 18 19 19 20 21 23 23 22 21 21 20 19 18 18 18 18 18 18 18 17 18
16 16 17 17 18 18 18 17 15 14 13 12 10 8 8 8 8 10 11 13 14 16 18 18 19 20 20 21 22 22 22 22 21 20 20 19 19 18 18 18 17 17 17
15 16 17 17 17 18 18 17 16 15 14 12 10 9 8 8 8 8 10 12 14 15 17 19 19 19 20 21 21 22 23 22 22 22 22 21 20 20 19 19 19 18 18
15 16 17 17 17 17 18 17 17 16 14 13 10 9 8 8 7 7 8 10 13 15 16 18 19 19 20 20 21 21 22 22 22 22 23 23 22 21 20 20 21 19 19
15 16 16 17 17 17 17 17 17 16 15 13 11 9 8 7 5 6 7 9 11 13 15 16 18 19 20 20 21 21 21 22 22 23 23 24 23 23 22 22 21 21 20
15 15 16 16 17 17 17 17 17 16 15 13 11 9 8 6 5 5 6 8 9 11 13 16 17 19 21 21 21 20 21 22 22 23 23 23 24 24 24 24 23 22 22
15 16 16 16 16 17 17 17 17 16 15 13 12 10 8 6 5 4 5 7 8 9 12 14 16 18 19 21 22 22 22 23 23 23 23 23 24 25 25 25 25 24 23
15 16 16 16 16 16 17 17 17 17 15 14 12 10 8 7 5 4 5 6 8 9 11 13 15 17 19 20 22 22 23 23 23 23 24 24 24 25 25 26 26 25 26
15 15 16 16 16 16 16 17 17 16 16 14 13 11 9 7 6 5 6 6 8 10 11 12 14 16 18 20 21 22 23 23 24 24 25 25 25 26 26 26 26 26 26
15 15 16 16 16 16 16 16 16 16 16 14 13 12 10 9 7 7 7 7 8 9 11 12 13 14 16 19 21 22 23 23 25 25 25 26 25 26 26 27 28 28 28
15 16 16 16 17 17 16 16 16 16 15 15 13 12 11 10 9 8 8 8 9 9 11 12 13 14 16 18 19 21 23 24 24 25 26 26 26 27 27 27 27 28 28
16 17 17 17 17 17 17 17 17 16 16 15 14 14 13 12 11 10 9 10 10 11 12 13 14 15 16 18 19 21 22 23 24 25 25 26 26 26 27 27 27 27 28
17 18 18 18 18 18 18 18 17 17 17 17 16 15 14 14 13 13 12 12 12 12 13 13 14 15 17 18 19 20 22 24 24 25 26 26 27 27 28 28 28 28 28
19 19 19 19 20 20 20 20 20 19 19 19 18 17 16 16 15 15 14 14 15 15 15 15 16 17 18 19 20 20 22 24 24 25 26 27 28 28 29 29 28 28 28
21 22 21 22 22 22 23 23 23 22 22 21 21 20 20 19 18 17 17 17 17 17 17 18 18 19 20 20 22 22 22 23 24 25 26 27 28 28 28 28 29 29 29
23 24 24 24 24 25 25 25 26 26 25 25 24 24 23 22 22 21 20 20 20 20 20 20 20 21 22 22 22 23 23 24 26 26 27 27 27 28 28 29 29 29 29
26 26 27 27 27 27 28 28 28 29 28 28 27 26 26 26 25 25 24 23 23 23 23 23 23 23 23 24 24 24 25 25 27 27 28 28 28 29 29 29 29 30 30
28 29 30 30 31 31 31 32 32 32 32 31 30 30 29 29 29 29 28 27 27 26 26 26 26 26 26 26 26 26 26 27 27 27 28 28 29 29 29 30 30 31 31
Wind_Direction
340 337 335 333 331 328 324 319 312 301 289 281 275 270 263 256 252 247 240 237 233 230 229 227 225 223 222 222 224 217 209 197 197 191 186 183 182 182 181 181 181 178 180
343 340 338 336 333 329 326 322 317 309 297 284 277 271 265 256 250 245 243 237 234 231 228 226 224 222 220 219 221 218 209 203 198 194 192 190 188 188 186 186 186 183 180
344 342 340 339 336 332 329 325 320 312 304 292 280 272 266 258 252 249 244 237 234 232 228 225 224 222 219 218 219 219 212 207 201 200 199 197 194 193 192 190 189 190 188
345 344 342 341 338 334 331 328 324 316 308 298 286 275 267 260 251 248 245 240 234 231 228 225 223 221 219 218 218 218 213 210 207 206 203 201 200 196 195 193 193 192 193
346 345 343 341 339 336 333 331 326 322 313 305 292 280 270 263 252 247 243 240 236 232 227 225 223 221 220 220 219 219 216 213 212 209 207 206 203 197 195 197 198 198 199
347 346 344 343 341 338 335 333 328 325 318 309 298 285 277 267 257 247 244 239 234 230 226 225 223 222 221 221 220 220 217 214 214 209 205 203 200 197 197 202 203 203 203
348 347 346 346 346 343 339 335 331 328 323 315 303 290 281 271 259 250 246 241 233 228 223 223 223 222 221 220 219 219 218 216 214 211 207 204 202 201 202 205 206 206 206
348 348 348 348 348 348 345 342 337 333 329 321 310 301 290 274 259 254 248 240 232 225 222 221 221 222 221 220 219 219 219 219 215 211 210 209 206 206 207 209 209 207 207
349 350 350 349 349 350 351 348 344 340 336 329 317 306 296 282 268 254 246 238 231 225 221 219 220 222 222 221 220 220 219 219 218 216 213 210 208 208 211 210 209 209 209
347 349 349 349 350 351 353 353 350 346 341 335 328 318 306 291 278 257 245 236 230 226 223 221 220 221 221 220 220 221 221 221 220 219 217 216 215 213 213 212 212 214 215
346 349 350 350 351 352 354 355 354 351 346 341 335 328 314 302 287 265 248 236 231 227 226 224 223 223 221 221 221 222 220 220 221 222 221 220 220 219 218 218 217 219 221
345 347 350 351 351 352 354 356 355 353 349 345 338 332 321 310 293 269 251 239 235 231 228 226 225 226 224 222 221 221 221 221 223 224 224 224 225 224 222 221 222 224 225
344 346 349 351 352 352 353 354 355 353 350 347 343 336 328 315 295 273 253 243 240 235 231 228 226 226 226 225 222 223 223 223 224 225 226 226 225 226 225 225 226 226 228
343 345 347 349 351 352 353 354 355 355 353 349 345 341 335 324 305 281 256 246 243 237 231 230 230 229 230 228 226 227 227 225 226 227 228 227 227 228 227 227 229 229 230
341 343 345 347 349 351 352 353 355 355 355 353 351 348 340 328 312 285 264 248 242 238 233 233 232 231 232 230 227 228 229 229 229 229 230 231 231 230 230 230 231 233 233
337 339 342 344 346 348 351 352 353 355 354 353 351 350 346 336 326 300 278 260 248 244 241 238 238 235 233 231 230 230 230 231 231 232 232 234 234 234 234 234 234 237 238
333 337 339 341 342 344 347 349 351 353 353 352 351 349 346 340 326 309 289 273 257 248 246 240 241 241 238 234 232 232 233 234 233 233 234 236 237 237 237 237 238 240 241
328 332 335 337 339 339 340 342 345 348 349 350 349 347 343 337 327 311 296 283 268 255 250 245 244 243 239 236 234 234 236 236 235 236 237 238 239 239 241 242 242 243 243
323 325 328 331 333 335 336 337 338 340 342 342 342 340 337 332 324 315 300 288 277 266 257 251 249 245 240 239 238 238 238 237 236 239 240 240 241 241 242 245 246 246 245
318 320 321 324 326 328 329 331 332 332 332 332 331 330 326 322 315 310 301 291 282 274 264 258 253 248 244 243 242 239 238 238 238 241 242 241 241 241 243 244 246 247 248
314 315 316 318 320 321 322 323 324 324 323 323 321 319 317 313 307 301 295 290 284 276 267 261 255 252 248 247 246 242 240 240 242 242 242 242 242 242 244 246 247 248 249
309 310 310 313 315 315 315 315 316 316 315 314 313 310 307 304 301 296 292 287 281 275 269 263 259 255 253 251 249 246 244 243 243 242 243 244 245 244 246 247 248 249 250
306 306 306 307 309 310 311 310 310 310 310 308 306 303 300 298 296 292 288 284 280 275 269 265 261 259 257 254 251 248 247 245 243 242 243 245 245 245 246 248 249 250 252
304 303 302 302 303 305 306 306 306 305 305 303 301 298 295 292 290 287 284 281 278 274 270 266 263 261 260 257 254 252 250 248 246 245 243 244 245 246 246 248 249 250 251
302 301 300 299 299 300 301 301 301 301 300 298 296 293 289 286 285 283 280 278 276 273 271 267 264 262 260 258 256 254 253 252 250 249 247 247 247 248 249 249 250 252 253
300 300 299 298 297 297 298 298 297 297 296 294 292 289 286 283 281 279 277 275 273 271 268 266 264 262 260 258 255 254 254 253 253 252 253 252 250 249 251 251 251 253 253
Height
5845 5843 5841 5839 5837 5835 5833 5831 5830 5829 5828 5828 5828 5829 5830 5831 5832 5834 5836 5838 5841 5844 5846 5849 5851 5854 5856 5858 5860 5861 5863 5864 5867 5869 5872 5874 5877 5880 5883 5886 5888 5889 5892
5844 5842 5839 5837 5835 5832 5830 5829 5827 5825 5825 5824 5825 5825 5826 5827 5829 5830 5832 5835 5838 5840 5843 5846 5849 5851 5854 5856 5858 5860 5862 5864 5866 5869 5872 5874 5877 5880 5883 5886 5888 5890 5893
5842 5840 5837 5835 5833 5830 5828 5826 5824 5823 5822 5821 5821 5821 5822 5823 5825 5827 5829 5831 5834 5837 5840 5843 5846 5849 5852 5854 5857 5859 5861 5863 5866 5868 5871 5873 5876 5879 5882 5885 5888 5890 5892
5841 5838 5836 5833 5831 5828 5826 5824 5821 5820 5819 5818 5818 5818 5819 5820 5821 5823 5825 5827 5830 5833 5836 5839 5843 5846 5849 5852 5854 5857 5860 5862 5865 5867 5869 5871 5874 5878 5881 5884 5887 5890 5893
5840 5837 5835 5832 5829 5826 5824 5821 5819 5818 5816 5816 5815 5815 5816 5816 5818 5819 5821 5824 5826 5830 5833 5836 5839 5843 5846 5849 5852 5855 5858 5861 5863 5865 5866 5868 5872 5876 5880 5883 5886 5889 5892
5839 5836 5833 5831 5828 5825 5822 5819 5817 5815 5814 5813 5813 5812 5813 5814 5815 5816 5818 5820 5823 5826 5829 5832 5836 5840 5843 5847 5850 5853 5856 5858 5861 5863 5864 5866 5870 5874 5878 5882 5885 5888 5891
5838 5835 5832 5829 5826 5823 5820 5818 5815 5814 5812 5811 5810 5810 5810 5811 5812 5813 5815 5817 5819 5822 5825 5829 5833 5836 5840 5844 5847 5851 5854 5857 5859 5862 5864 5866 5870 5874 5877 5880 5883 5886 5889
5837 5834 5832 5829 5826 5823 5819 5817 5814 5812 5810 5809 5808 5808 5808 5809 5809 5810 5812 5814 5816 5819 5822 5826 5830 5833 5837 5841 5844 5848 5851 5855 5858 5861 5863 5866 5869 5872 5876 5879 5881 5884 5886
5836 5834 5831 5828 5825 5822 5819 5816 5813 5811 5809 5807 5806 5806 5806 5806 5807 5808 5809 5811 5814 5816 5820 5823 5827 5830 5834 5838 5842 5845 5849 5852 5855 5859 5862 5865 5868 5871 5874 5877 5880 5882 5885
5836 5833 5830 5828 5825 5822 5818 5815 5812 5810 5807 5806 5804 5804 5804 5804 5804 5806 5807 5809 5811 5814 5817 5821 5824 5827 5830 5834 5838 5842 5846 5849 5853 5856 5860 5863 5866 5869 5872 5875 5878 5881 5884
5835 5833 5830 5827 5824 5821 5818 5815 5812 5809 5807 5805 5803 5802 5802 5802 5802 5803 5805 5807 5809 5811 5815 5818 5820 5824 5827 5831 5835 5839 5842 5846 5850 5853 5857 5860 5864 5867 5870 5873 5876 5879 5881
5834 5832 5829 5827 5824 5821 5818 5815 5812 5809 5806 5804 5802 5801 5801 5800 5800 5801 5803 5804 5807 5809 5812 5815 5818 5821 5824 5828 5832 5835 5839 5843 5846 5850 5854 5857 5860 5864 5867 5870 5872 5875 5878
5834 5831 5829 5826 5823 5820 5817 5814 5811 5808 5806 5803 5802 5800 5799 5799 5799 5800 5801 5803 5804 5807 5809 5812 5815 5818 5821 5825 5828 5832 5835 5839 5843 5846 5850 5853 5857 5860 5863 5866 5869 5872 5874
5832 5830 5828 5825 5823 5820 5817 5814 5811 5808 5805 5803 5801 5800 5799 5798 5798 5799 5800 5801 5803 5805 5807 5810 5812 5815 5818 5821 5825 5828 5832 5835 5839 5843 5846 5849 5853 5856 5859 5862 5865 5868 5870
5831 5829 5827 5825 5822 5820 5817 5814 5811 5808 5805 5803 5801 5799 5798 5797 5797 5797 5798 5800 5802 5803 5805 5807 5809 5812 5814 5818 5821 5825 5828 5831 5835 5838 5842 5845 5848 5851 5855 5857 5861 5863 5866
5830 5828 5826 5823 5821 5819 5816 5813 5811 5808 5805 5803 5801 5799 5798 5797 5797 5797 5797 5798 5799 5801 5802 5804 5806 5809 5811 5814 5817 5820 5824 5827 5830 5834 5837 5840 5843 5847 5850 5853 5856 5858 5861
5828 5826 5824 5822 5820 5818 5815 5813 5810 5808 5805 5803 5801 5799 5798 5797 5796 5796 5796 5797 5797 5799 5800 5802 5804 5805 5807 5810 5813 5816 5819 5822 5826 5829 5832 5835 5838 5841 5844 5847 5850 5853 5856
5826 5825 5823 5821 5819 5816 5814 5812 5809 5807 5805 5803 5801 5799 5797 5796 5796 5795 5795 5795 5796 5797 5798 5799 5801 5802 5804 5806 5809 5812 5815 5818 5821 5823 5827 5830 5833 5836 5839 5841 5844 5847 5849
5824 5822 5821 5819 5817 5815 5813 5810 5808 5806 5804 5802 5800 5799 5797 5796 5795 5794 5794 5794 5794 5794 5795 5796 5798 5799 5800 5802 5804 5807 5810 5812 5815 5818 5821 5824 5827 5830 5833 5835 5837 5840 5842
5821 5819 5818 5816 5814 5812 5810 5808 5806 5804 5802 5801 5799 5797 5796 5794 5793 5792 5792 5792 5792 5792 5792 5793 5794 5795 5797 5798 5800 5802 5805 5807 5810 5812 5815 5818 5821 5823 5826 5828 5831 5833 5835
5818 5816 5814 5813 5811 5809 5807 5806 5804 5802 5800 5798 5797 5795 5794 5792 5791 5790 5789 5789 5788 5788 5789 5789 5790 5791 5793 5794 5795 5797 5799 5801 5804 5806 5809 5812 5814 5817 5819 5821 5824 5826 5828
5814 5812 5810 5809 5807 5805 5803 5802 5800 5798 5797 5795 5793 5792 5790 5789 5788 5786 5785 5785 5784 5784 5785 5785 5786 5787 5788 5789 5790 5792 5793 5796 5798 5800 5802 5805 5807 5810 5812 5814 5816 5818 5821
5809 5807 5806 5804 5803 5801 5799 5797 5795 5794 5792 5790 5789 5787 5786 5784 5783 5782 5781 5780 5780 5780 5780 5780 5781 5781 5782 5783 5784 5786 5787 5789 5791 5793 5796 5798 5800 5802 5805 5807 5809 5811 5813
5803 5802 5800 5798 5797 5795 5793 5791 5789 5787 5786 5784 5783 5781 5780 5778 5777 5776 5775 5774 5774 5774 5774 5774 5775 5775 5776 5776 5778 5779 5780 5782 5784 5786 5788 5791 5792 5795 5797 5799 5801 5803 5805
5797 5795 5793 5791 5790 5788 5786 5784 5782 5780 5778 5777 5775 5773 5772 5771 5770 5769 5768 5767 5767 5767 5767 5767 5768 5768 5769 5769 5770 5772 5774 5775 5777 5779 5780 5783 5784 5786 5788 5790 5792 5794 5796
5790 5788 5786 5784 5782 5780 5778 5775 5773 5771 5769 5768 5766 5764 5763 5762 5761 5760 5759 5759 5759 5759 5759 5759 5759 5760 5761 5762 5763 5764 5766 5767 5769 5771 5772 5774 5776 5778 5780 5782 5784 5785 5787